Temperature
19 17 17 18 18 20 20 20 20 20 21 21 20 20 20 20 19 19 19 19 19 20 21 21 21 21 21 20 20 19 19 19 18 18 18 18 18 17 17 17 17 16 16 16
18 18 19 19 19 20 20 20 20 20 21 21 20 19 19 19 19 19 19 19 20 20 20 20 20 20 20 20 20 20 19 19 18 18 18 18 17 17 17 17 16 16 16 16
19 19 20 20 20 20 20 19 20 20 20 20 20 19 19 19 19 19 19 19 19 19 20 20 20 20 20 20 19 19 19 19 18 18 17 17 17 17 17 16 16 16 16 16
19 19 20 20 20 20 19 20 20 20 19 18 20 18 19 18 18 18 18 18 19 19 19 20 19 19 19 19 19 19 18 18 18 18 17 17 17 17 17 17 16 16 16 16
19 20 20 20 21 20 20 21 20 20 19 18 18 18 18 17 18 18 18 18 18 19 19 19 19 19 19 19 19 18 18 18 18 17 17 17 17 17 17 16 16 16 16 16
19 20 20 21 21 21 20 20 18 16 16 18 18 18 18 17 18 18 18 18 18 18 18 18 19 19 19 18 18 18 18 17 17 17 17 16 16 16 16 16 16 15 15 15
19 20 20 21 21 21 20 18 17 18 16 17 17 18 17 18 17 17 17 17 17 17 17 18 18 18 18 18 18 17 17 17 17 17 16 16 16 16 16 16 15 15 15 15
18 18 20 20 20 19 18 18 17 18 17 17 17 17 17 18 18 18 17 17 17 17 17 17 18 17 18 17 17 17 17 17 17 16 16 16 16 16 16 15 15 15 15 15
17 18 20 20 20 19 18 17 17 16 16 17 16 17 17 17 17 16 16 16 16 16 17 17 17 17 17 17 17 17 16 16 16 16 16 15 15 15 15 15 15 15 15 14
17 18 19 20 20 19 18 16 15 16 16 17 17 17 17 17 17 16 15 15 16 16 16 16 16 16 16 16 16 16 16 16 16 16 15 15 15 15 15 15 15 15 15 14
17 17 18 19 19 19 18 17 15 14 15 16 16 17 17 16 16 15 15 16 16 16 16 16 16 16 16 16 16 16 16 15 15 15 15 15 15 15 15 15 14 14 14 14
16 15 16 17 18 18 18 16 15 16 16 14 15 16 17 16 15 15 15 15 15 16 16 16 16 16 16 16 15 15 15 15 15 15 15 14 14 14 14 14 14 14 14 14
16 15 16 17 17 17 17 16 15 14 13 13 15 17 16 15 15 15 15 15 15 15 15 15 15 15 15 15 15 15 15 15 15 14 14 14 14 14 14 14 14 14 14 14
15 14 15 16 16 16 17 16 15 14 14 14 15 16 16 15 14 14 14 15 15 15 15 15 15 15 15 15 15 15 15 14 14 14 14 14 14 14 13 14 13 13 13 13
15 14 15 15 16 17 17 16 16 15 15 15 15 15 15 15 14 14 14 14 14 14 14 14 15 15 15 15 15 14 14 14 14 14 14 14 14 13 13 13 13 13 13 13
13 14 15 15 16 16 16 16 16 16 15 15 15 15 14 14 14 14 14 14 14 14 14 14 14 15 14 15 14 14 14 14 14 14 14 13 13 13 13 13 13 13 13 13
12 13 14 14 15 16 15 15 15 15 15 15 15 15 14 13 13 14 14 14 14 14 14 15 15 14 14 14 14 14 14 14 14 13 13 13 13 13 13 13 13 13 13 13
11 11 11 12 14 15 14 14 15 15 14 14 14 14 13 13 14 15 15 15 14 14 15 15 15 14 14 14 14 14 14 14 13 13 13 13 13 13 13 13 13 13 12 12
11 11 11 11 13 14 14 14 14 14 14 13 13 13 13 13 13 14 15 15 15 15 15 15 15 15 14 14 14 14 14 13 13 13 13 13 13 12 12 12 12 12 12 12
11 10 11 11 13 13 14 14 14 14 14 13 13 12 12 12 12 13 15 14 14 14 15 15 14 14 14 14 14 13 13 13 13 13 13 13 12 12 12 12 12 12 12 12
11 10 10 11 12 12 13 13 14 14 13 13 13 13 12 12 13 14 15 14 14 14 14 14 14 14 14 13 13 13 13 13 13 13 12 12 12 12 12 12 12 12 12 12
10 10 10 10 11 12 12 12 12 12 13 13 13 13 13 13 14 14 14 14 14 14 14 14 14 14 13 13 13 13 13 13 12 12 12 12 12 12 12 12 12 11 11 11
9 9 9 10 10 11 11 12 12 13 12 13 13 13 13 13 13 14 14 14 14 14 13 13 13 13 13 13 12 12 12 12 12 12 12 12 12 12 12 11 11 11 11 11
10 9 9 9 10 11 12 12 13 13 13 13 13 13 13 13 13 13 13 13 13 13 13 13 12 12 12 12 12 12 12 12 12 12 12 12 11 11 11 11 11 11 11 11
9 9 9 9 10 11 12 12 12 13 13 13 13 13 13 13 13 13 13 13 13 13 13 12 12 12 12 12 12 12 12 12 12 12 11 11 11 11 11 11 11 11 11 11
8 9 9 9 10 10 11 12 12 12 12 12 12 12 13 13 13 13 13 13 12 12 12 12 12 12 12 11 11 11 11 11 11 11 11 11 11 11 11 11 11 11 11 11
Wind_Speed
4 5 4 8 8 6 4 3 4 6 3 0 3 5 6 2 2 3 4 5 5 6 5 3 5 6 7 6 6 6 6 4 4 3 3 2 1 0 0 0 1 2 2 2
4 4 9 6 5 5 4 3 4 6 2 2 2 4 4 2 3 5 6 6 6 4 2 2 3 5 6 7 7 7 6 5 4 3 3 2 2 1 0 0 0 1 2 2
7 6 4 6 5 5 4 6 6 5 3 2 0 5 4 3 1 1 2 3 4 6 5 4 4 4 5 5 6 7 6 5 4 3 2 3 3 2 1 0 1 1 1 2
5 5 4 5 5 7 6 8 7 4 1 2 1 3 6 3 3 2 2 2 3 4 3 3 4 4 5 5 5 5 5 5 4 4 4 4 3 2 3 2 1 1 0 1
6 4 5 6 7 8 7 3 4 2 3 0 1 2 6 2 3 5 4 3 3 2 3 3 3 4 3 4 4 4 5 4 4 5 5 4 2 2 1 1 1 0 1 0
5 3 5 6 4 5 5 6 6 6 4 1 4 4 6 3 5 4 3 2 2 2 2 2 2 3 3 3 3 4 4 3 3 4 5 5 4 3 3 1 1 1 1 0
3 3 3 2 3 2 5 6 3 3 2 5 3 3 7 5 4 4 4 3 2 3 3 3 4 4 4 4 3 3 4 3 3 4 3 3 4 4 4 3 2 1 1 1
3 5 4 3 6 6 6 9 8 6 6 4 2 5 5 2 1 1 2 3 4 3 3 3 3 3 4 4 3 3 3 3 3 3 3 2 2 2 2 3 2 2 2 2
6 6 4 3 2 7 6 5 6 7 3 1 4 5 6 0 1 2 3 4 3 3 4 4 3 3 3 3 3 3 3 3 3 3 3 2 2 1 1 2 1 1 1 1
7 4 4 2 3 3 5 8 6 6 6 3 4 4 5 5 3 2 3 3 3 3 3 3 3 3 2 2 2 2 2 3 3 3 2 2 1 1 1 1 1 1 1 1
4 4 3 1 3 4 4 4 5 5 5 6 4 6 5 7 6 7 7 5 5 5 4 4 3 2 3 2 3 2 3 3 3 2 2 2 2 1 1 1 1 1 1 1
4 4 2 4 4 2 5 6 6 5 4 4 4 6 3 3 4 5 5 4 4 4 4 4 3 3 3 3 3 3 3 3 2 2 3 2 2 1 1 0 1 1 1 2
5 5 2 3 3 3 3 2 4 5 5 5 5 6 2 2 3 3 4 4 4 4 4 3 3 3 3 2 2 4 3 3 2 2 2 2 1 1 1 1 1 1 1 2
5 4 6 8 6 3 2 1 3 5 4 5 6 6 3 1 2 2 3 4 4 4 4 4 3 2 2 2 2 3 3 2 2 2 2 1 0 1 2 1 1 2 2 2
4 3 3 3 2 2 2 2 3 4 6 7 6 6 7 6 5 4 4 4 4 4 4 5 4 3 2 3 2 2 3 2 2 2 2 1 1 1 1 1 2 2 2 2
3 3 2 1 1 1 1 1 2 3 3 4 3 5 4 2 2 3 5 6 6 6 6 5 5 4 3 3 3 3 3 3 3 2 2 1 0 0 1 1 1 2 2 2
2 4 3 2 2 1 3 3 4 3 2 4 6 6 2 2 4 6 7 7 7 6 5 6 5 5 4 4 4 4 4 3 3 2 1 1 1 1 1 2 2 2 3 3
5 4 3 2 1 4 5 2 3 4 3 2 2 2 3 4 4 3 4 6 5 5 5 5 5 5 4 4 4 4 4 3 3 2 2 1 1 1 1 1 2 3 3 3
4 6 4 3 2 4 4 2 2 3 4 2 3 2 1 1 2 3 2 3 5 5 4 5 5 5 4 5 5 4 4 3 3 3 2 2 2 2 1 2 2 3 3 3
4 3 5 4 3 5 5 3 1 2 3 2 2 3 2 3 1 4 3 2 2 2 2 3 3 3 4 4 4 5 4 4 4 4 4 3 2 2 2 3 3 2 2 3
3 3 3 3 3 5 4 4 1 3 5 3 2 2 3 3 4 4 2 1 1 1 2 3 4 4 5 4 5 4 4 5 5 4 3 2 2 3 3 2 2 2 2 2
3 3 3 3 3 5 3 1 3 5 3 2 2 2 2 3 3 2 2 1 1 1 1 3 4 3 3 4 5 5 5 5 4 3 3 3 3 3 2 1 1 1 1 1
3 4 4 5 5 4 3 3 3 3 3 3 3 3 2 2 3 2 2 2 2 2 2 3 4 3 3 3 5 5 5 4 4 3 3 3 3 2 2 2 2 1 1 1
1 1 2 1 4 4 4 3 3 3 3 4 4 4 3 3 4 3 3 2 2 2 2 2 3 4 3 3 4 5 4 4 4 4 4 3 3 2 2 2 2 2 2 2
3 1 1 2 4 4 4 4 3 3 3 2 2 2 3 3 4 3 3 3 3 2 2 3 4 4 3 3 3 3 3 4 4 4 3 3 3 3 3 3 3 4 4 5
2 3 3 5 5 3 5 5 3 2 3 2 2 2 3 3 4 3 3 3 2 3 2 3 3 3 3 3 3 3 3 4 4 4 3 3 3 3 3 3 3 4 5 6
Wind_Direction
103 97 188 204 190 179 165 194 257 263 261 183 254 272 280 266 179 215 208 207 213 222 226 194 178 169 163 162 163 172 173 171 157 159 167 159 170 147 79 113 134 150 151 154
68 232 223 190 174 169 181 226 265 290 296 178 255 286 287 257 200 209 208 208 212 211 197 181 167 165 171 175 171 168 171 169 167 181 175 146 127 116 118 300 48 173 162 159
182 225 182 159 174 182 212 200 222 239 341 27 88 318 310 305 319 275 212 212 214 208 201 188 172 170 169 176 179 180 172 166 164 151 121 104 85 68 53 289 264 265 179 163
215 236 181 182 202 177 240 220 202 206 122 285 127 278 290 290 318 313 278 234 228 225 207 187 170 163 171 181 172 165 160 156 154 144 148 157 160 183 215 221 227 291 71 128
226 201 177 199 212 178 212 199 166 167 160 265 332 186 282 312 282 279 268 241 227 207 190 187 183 174 163 156 156 156 148 147 148 146 153 157 167 193 189 168 156 305 329 63
233 224 195 204 199 170 151 75 59 52 78 271 240 183 271 238 228 253 258 244 205 145 142 141 124 117 114 118 122 127 130 140 141 138 149 163 172 168 152 172 189 253 296 292
295 283 245 164 111 80 114 100 38 359 12 245 250 187 243 244 226 223 232 225 155 133 128 121 114 119 118 112 111 120 132 138 137 137 145 162 173 175 175 187 197 212 253 257
204 274 237 192 178 178 176 147 163 196 214 262 301 227 247 260 275 219 169 142 126 127 125 127 130 128 126 125 124 131 139 140 138 137 135 133 147 171 183 188 189 207 229 246
182 245 284 243 189 145 146 173 166 142 151 208 270 280 297 221 74 79 94 111 131 140 128 126 124 124 126 132 141 149 146 136 127 133 132 133 135 154 193 194 188 218 241 257
162 219 279 284 80 39 142 144 111 133 158 221 267 260 244 242 216 178 160 166 160 147 134 133 135 139 133 136 131 122 129 140 134 124 129 137 121 151 195 180 216 251 272 275
148 172 292 23 166 177 108 104 113 125 153 164 224 257 228 212 204 193 198 191 172 165 159 155 144 145 134 123 121 116 121 118 112 109 102 93 82 94 124 130 271 277 288 310
149 136 223 259 265 198 151 155 144 153 202 177 184 254 285 199 193 186 187 181 171 160 150 146 145 146 139 140 144 140 136 137 137 130 109 99 88 74 70 332 302 307 314 314
136 125 106 342 340 20 92 126 142 131 129 163 183 253 341 70 119 154 161 167 167 153 140 133 133 149 160 158 150 144 145 149 139 124 114 101 76 52 315 302 305 306 302 307
124 126 173 198 211 185 167 148 139 130 157 200 216 233 273 287 186 182 169 171 170 164 158 155 154 169 173 156 143 142 144 148 136 127 124 112 165 260 273 299 311 308 299 293
104 146 199 223 215 159 179 203 173 172 186 194 222 222 242 235 214 201 186 179 177 174 186 183 181 182 169 146 141 145 148 153 152 144 145 175 229 267 301 320 320 325 317 299
87 135 141 305 276 192 259 271 212 211 200 204 208 249 255 239 165 190 195 189 197 197 198 196 189 183 181 174 166 161 161 168 157 159 181 191 165 289 304 302 321 330 323 312
123 132 125 233 279 350 260 242 218 210 218 190 216 238 235 223 215 218 214 206 206 208 202 196 196 193 194 192 181 175 178 164 160 176 193 199 226 259 285 310 335 318 313 320
141 123 128 143 93 223 246 247 202 199 236 235 214 227 215 240 251 249 219 205 205 202 202 203 196 195 193 182 176 175 168 160 167 183 200 208 219 251 288 308 299 300 303 301
157 145 131 135 185 264 277 257 185 198 263 240 213 232 254 10 8 305 259 212 206 207 211 207 197 190 181 182 177 164 171 171 176 197 211 212 209 224 257 282 289 291 294 297
54 106 127 139 169 228 245 279 273 151 274 279 212 207 175 105 169 267 268 240 236 221 209 193 179 169 174 186 171 165 181 183 202 215 219 212 206 211 237 256 273 288 292 292
44 60 131 166 201 256 271 302 92 169 245 282 229 209 175 196 226 260 259 241 224 224 211 177 170 177 190 181 165 174 190 212 220 215 208 206 213 219 233 250 270 291 307 320
155 141 164 153 188 251 290 99 174 222 261 255 238 213 214 257 280 270 224 213 184 237 191 172 172 186 189 179 170 184 212 225 213 196 199 212 222 229 237 227 271 288 290 310
179 188 183 187 210 251 271 238 246 232 245 257 252 265 238 260 273 266 236 221 213 192 182 172 170 177 188 193 183 195 221 213 194 189 202 217 228 235 226 215 233 269 266 267
259 141 140 230 266 278 287 294 310 301 268 252 243 238 227 241 253 253 234 221 207 206 189 172 167 178 201 216 207 208 213 197 185 194 208 218 221 236 237 226 223 235 246 250
229 165 157 245 277 313 304 297 306 324 342 325 284 249 232 232 248 240 232 222 216 220 207 179 181 191 210 220 226 224 203 183 190 203 212 220 219 220 231 237 234 236 240 228
219 191 192 233 238 228 268 288 303 311 319 305 295 308 292 245 244 244 235 224 209 213 196 186 184 186 203 208 225 227 201 183 189 204 213 218 221 221 225 240 278 269 249 245
Height
1488 1495 1501 1498 1497 1499 1501 1505 1507 1502 1496 1498 1500 1500 1495 1494 1494 1495 1495 1495 1496 1497 1497 1499 1501 1504 1506 1507 1510 1511 1513 1514 1515 1516 1517 1517 1518 1520 1521 1521 1522 1522 1523 1523
1493 1496 1491 1490 1493 1496 1500 1505 1506 1500 1494 1497 1501 1500 1494 1493 1493 1492 1493 1493 1494 1495 1496 1497 1499 1501 1503 1505 1507 1508 1511 1512 1514 1515 1516 1517 1518 1519 1520 1521 1521 1521 1521 1521
1492 1489 1485 1489 1493 1497 1499 1503 1502 1502 1497 1497 1500 1504 1497 1493 1492 1491 1491 1491 1492 1493 1494 1495 1497 1499 1501 1503 1505 1507 1508 1510 1512 1514 1515 1516 1517 1518 1519 1519 1519 1519 1520 1520
1487 1483 1485 1488 1491 1493 1500 1492 1494 1497 1505 1511 1505 1518 1502 1496 1493 1490 1490 1490 1490 1491 1492 1494 1495 1497 1499 1501 1503 1505 1507 1509 1510 1512 1514 1515 1515 1515 1516 1517 1518 1518 1518 1518
1485 1481 1483 1486 1485 1486 1490 1486 1491 1496 1503 1512 1509 1516 1509 1497 1495 1491 1489 1488 1488 1489 1491 1492 1493 1495 1497 1499 1501 1503 1505 1507 1508 1510 1511 1513 1514 1514 1515 1516 1516 1516 1517 1516
1479 1477 1477 1478 1478 1480 1483 1490 1497 1505 1511 1521 1512 1516 1512 1500 1493 1489 1487 1487 1487 1488 1490 1491 1492 1494 1496 1498 1500 1502 1504 1505 1507 1508 1509 1511 1512 1513 1514 1514 1514 1515 1515 1515
1483 1478 1475 1474 1479 1482 1485 1501 1518 1520 1528 1524 1508 1511 1507 1490 1487 1486 1486 1486 1486 1487 1489 1490 1491 1493 1494 1497 1499 1501 1502 1503 1504 1506 1508 1509 1510 1511 1512 1512 1513 1513 1513 1513
1492 1491 1476 1474 1477 1484 1487 1495 1516 1525 1527 1521 1510 1510 1498 1486 1485 1484 1484 1485 1486 1487 1488 1489 1491 1492 1494 1496 1498 1500 1501 1502 1503 1504 1506 1507 1508 1510 1510 1511 1511 1511 1511 1511
1491 1489 1473 1471 1471 1476 1487 1493 1493 1510 1516 1521 1515 1505 1493 1485 1485 1485 1485 1485 1486 1487 1488 1489 1491 1492 1494 1495 1497 1498 1500 1501 1502 1503 1504 1506 1507 1508 1508 1509 1510 1510 1510 1509
1479 1486 1476 1471 1471 1474 1478 1486 1500 1510 1521 1524 1514 1507 1501 1489 1486 1485 1485 1485 1486 1487 1488 1489 1491 1492 1493 1495 1496 1498 1499 1500 1501 1502 1503 1505 1505 1506 1507 1508 1508 1508 1508 1508
1474 1484 1481 1476 1477 1480 1483 1488 1496 1506 1508 1518 1520 1509 1485 1484 1482 1483 1483 1484 1484 1486 1487 1489 1490 1492 1493 1494 1496 1497 1498 1499 1500 1501 1502 1503 1504 1505 1506 1506 1506 1506 1506 1506
1474 1484 1489 1481 1473 1471 1475 1483 1492 1502 1506 1509 1512 1504 1479 1479 1479 1481 1482 1483 1484 1486 1487 1488 1490 1491 1492 1493 1494 1495 1497 1498 1499 1500 1501 1502 1503 1504 1505 1505 1505 1505 1505 1504
1473 1484 1493 1489 1485 1478 1478 1481 1484 1492 1501 1509 1509 1499 1479 1478 1479 1480 1481 1483 1484 1485 1486 1488 1489 1490 1491 1492 1493 1494 1496 1497 1499 1500 1501 1502 1502 1503 1503 1503 1503 1503 1503 1503
1468 1481 1487 1491 1487 1481 1481 1481 1483 1489 1500 1502 1497 1489 1482 1480 1479 1480 1481 1482 1483 1484 1485 1486 1488 1489 1490 1491 1492 1493 1495 1497 1498 1499 1500 1501 1501 1502 1502 1502 1502 1502 1501 1501
1468 1479 1479 1478 1475 1476 1477 1479 1481 1484 1487 1491 1487 1485 1481 1478 1478 1478 1480 1481 1482 1482 1484 1485 1486 1487 1488 1489 1491 1492 1494 1496 1497 1498 1499 1499 1500 1501 1501 1500 1500 1500 1499 1499
1471 1478 1479 1480 1476 1476 1478 1478 1478 1479 1481 1482 1481 1482 1477 1476 1477 1477 1478 1479 1480 1480 1481 1483 1484 1485 1486 1488 1489 1491 1493 1495 1496 1497 1498 1499 1499 1500 1499 1499 1498 1498 1497 1497
1474 1478 1484 1486 1480 1478 1484 1479 1478 1478 1477 1477 1479 1477 1475 1476 1475 1475 1475 1476 1477 1478 1480 1481 1482 1483 1485 1487 1488 1490 1491 1493 1494 1495 1496 1497 1497 1498 1498 1497 1496 1496 1495 1495
1474 1480 1486 1489 1485 1491 1482 1473 1472 1474 1474 1473 1473 1473 1473 1473 1473 1473 1473 1473 1475 1476 1478 1479 1480 1482 1484 1485 1487 1489 1490 1491 1493 1494 1494 1495 1495 1496 1496 1495 1495 1494 1493 1493
1468 1476 1486 1491 1490 1485 1478 1472 1472 1474 1474 1471 1471 1471 1471 1472 1472 1471 1471 1471 1472 1473 1475 1477 1479 1480 1482 1484 1485 1487 1488 1489 1490 1491 1492 1493 1494 1494 1494 1493 1493 1492 1491 1490
1469 1472 1482 1488 1489 1489 1478 1470 1469 1472 1475 1470 1469 1469 1470 1471 1475 1471 1469 1470 1470 1472 1473 1475 1476 1478 1479 1481 1483 1484 1485 1486 1487 1489 1490 1491 1491 1492 1491 1491 1491 1490 1489 1488
1477 1480 1483 1486 1487 1482 1473 1469 1469 1479 1475 1469 1468 1468 1469 1469 1470 1468 1468 1468 1468 1469 1471 1472 1473 1475 1476 1479 1480 1481 1482 1484 1485 1487 1488 1489 1489 1489 1490 1489 1489 1489 1488 1486
1479 1483 1485 1487 1487 1484 1470 1469 1472 1471 1467 1466 1466 1466 1467 1467 1466 1466 1466 1466 1466 1467 1468 1469 1470 1471 1474 1476 1477 1478 1480 1482 1483 1484 1485 1486 1487 1487 1487 1487 1487 1486 1486 1485
1477 1478 1479 1480 1480 1472 1468 1468 1467 1466 1465 1465 1465 1465 1465 1465 1465 1464 1464 1464 1464 1465 1466 1467 1468 1469 1471 1473 1474 1475 1477 1479 1480 1481 1482 1484 1484 1485 1485 1485 1485 1484 1484 1483
1474 1473 1475 1475 1472 1469 1467 1466 1465 1463 1461 1461 1463 1464 1464 1463 1463 1463 1462 1462 1463 1463 1464 1465 1466 1466 1468 1470 1472 1473 1474 1476 1477 1478 1479 1481 1482 1482 1483 1483 1483 1482 1481 1481
1472 1472 1473 1473 1470 1467 1465 1465 1464 1462 1459 1459 1461 1461 1461 1461 1461 1461 1460 1460 1460 1461 1462 1463 1464 1464 1466 1467 1469 1470 1472 1473 1474 1475 1476 1477 1478 1479 1480 1480 1480 1480 1479 1479
1470 1470 1471 1470 1467 1467 1465 1463 1463 1462 1461 1460 1460 1459 1459 1459 1458 1458 1458 1458 1458 1459 1460 1461 1462 1463 1464 1465 1466 1468 1469 1470 1471 1472 1473 1474 1475 1476 1476 1477 1477 1477 1477 1476